E24CR-1 Weather Reports


Display with metric or nautical units.
time (UTC)temp
F
wind
direction
speed
MPH
gust
MPH
rain 1hr
in
rain 24hr
in
rain mn
in
humidity
%
barometer
mb
20260904154122 76 0 0.0 0.0 0.00 0.00 0.00 85 953.0
20260904153058 76 0 0.0 0.0 0.00 0.00 0.00 85 952.0
20260904152034 76 0 0.0 0.0 0.00 0.00 0.00 85 952.0
20260904151010 77 0 0.0 0.0 0.00 0.00 0.00 83 952.0
20260904145945 77 0 0.0 0.0 0.00 0.00 0.00 82 952.0
20260904144921 77 0 0.0 0.0 0.00 0.00 0.00 80 952.0
20260904143857 77 0 0.0 0.0 0.00 0.00 0.00 80 952.0
20260904142833 78 0 0.0 0.0 0.00 0.00 0.00 79 952.0
20260904141809 77 0 0.0 0.0 0.00 0.00 0.00 81 952.0
20260904140745 76 0 0.0 0.0 0.00 0.00 0.00 83 952.0
20260904135720 76 0 0.0 0.0 0.00 0.00 0.00 86 952.0
20260904134656 76 0 0.0 0.0 0.00 0.00 0.00 86 952.0
20260904133632 77 0 0.0 0.0 0.00 0.00 0.00 83 952.0
20260904132608 77 0 0.0 0.0 0.00 0.00 0.00 80 951.0
20260904131544 77 0 0.0 0.0 0.00 0.00 0.00 81 951.0
20260904130520 77 0 0.0 0.0 0.00 0.00 0.00 82 951.0
20260904125456 78 0 0.0 0.0 0.00 0.00 0.00 81 951.0
20260904124429 79 0 0.0 0.0 0.00 0.00 0.00 79 951.0
20260904123405 80 0 0.0 0.0 0.00 0.00 0.00 80 951.0
20260904122341 80 0 0.0 0.0 0.00 0.00 0.00 78 951.0
20260904121317 81 0 0.0 0.0 0.00 0.00 0.00 78 950.0
20260904120252 81 0 0.0 0.0 0.00 0.00 0.00 75 950.0
20260904115228 82 0 0.0 0.0 0.00 0.00 0.00 68 950.0
20260904114201 82 0 0.0 0.0 0.00 0.00 0.00 67 950.0
20260904113137 82 0 0.0 0.0 0.00 0.00 0.00 67 950.0
20260904112112 82 0 0.0 0.0 0.00 0.00 0.00 67 950.0
20260904111046 82 0 0.0 0.0 0.00 0.00 0.00 68 949.0
20260904110019 82 0 0.0 0.0 0.00 0.00 0.00 69 949.0
20260904104952 83 0 0.0 0.0 0.00 0.00 0.00 69 949.0
20260904103927 83 0 0.0 0.0 0.00 0.00 0.00 68 949.0
20260904102903 84 0 0.0 0.0 0.00 0.00 0.00 71 949.0
20260904101837 84 0 0.0 0.0 0.00 0.00 0.00 69 949.0
20260904100812 83 0 0.0 0.0 0.00 0.00 0.00 72 949.0
20260904095747 85 0 0.0 0.0 0.00 0.00 0.00 72 949.0
20260904094723 84 0 0.0 0.0 0.00 0.00 0.00 70 949.0
20260904093659 84 0 0.0 0.0 0.00 0.00 0.00 73 949.0
20260904092634 83 0 0.0 0.0 0.00 0.00 0.00 72 949.0
20260904091610 82 0 0.0 0.0 0.00 0.00 0.00 75 949.0
20260904090546 82 0 0.0 0.0 0.00 0.00 0.00 73 949.0
20260904085522 82 0 0.0 0.0 0.00 0.00 0.00 75 949.0
20260904084457 83 0 0.0 0.0 0.00 0.00 0.00 73 949.0
20260904083433 83 0 0.0 0.0 0.00 0.00 0.00 71 949.0
20260904082408 85 0 0.0 0.0 0.00 0.00 0.00 68 949.0
20260904081344 86 0 0.0 0.0 0.00 0.00 0.00 67 949.0
20260904080320 86 0 0.0 0.0 0.00 0.00 0.00 66 949.0
20260904075256 85 0 0.0 0.0 0.00 0.00 0.00 65 949.0
20260904074232 85 0 0.0 0.0 0.00 0.00 0.00 67 949.0
20260904073207 85 0 0.0 0.0 0.00 0.00 0.00 65 949.0
20260904072144 85 0 0.0 0.0 0.00 0.00 0.00 67 949.0
20260904071120 84 0 0.0 0.0 0.00 0.00 0.00 64 950.0
20260904070055 85 0 0.0 0.0 0.00 0.00 0.00 64 950.0
20260904065030 86 0 0.0 0.0 0.00 0.00 0.00 65 950.0
20260904064004 86 0 0.0 0.0 0.00 0.00 0.00 67 950.0
20260904062940 86 0 0.0 0.0 0.00 0.00 0.00 58 951.0
20260904061915 86 0 0.0 0.0 0.00 0.00 0.00 61 951.0
20260904060850 86 0 0.0 0.0 0.00 0.00 0.00 63 951.0
20260904055826 86 0 0.0 0.0 0.00 0.00 0.00 61 951.0
20260904054802 88 0 0.0 0.0 0.00 0.00 0.00 61 951.0
20260904053737 86 0 0.0 0.0 0.00 0.00 0.00 62 951.0
20260904052713 87 0 0.0 0.0 0.00 0.00 0.00 58 952.0
20260904051648 87 0 0.0 0.0 0.00 0.00 0.00 64 952.0
20260904050623 83 0 0.0 0.0 0.00 0.00 0.00 67 952.0
20260904045559 83 0 0.0 0.0 0.00 0.00 0.00 72 952.0
20260904044535 83 0 0.0 0.0 0.00 0.00 0.00 71 952.0
20260904043510 83 0 0.0 0.0 0.00 0.00 0.00 69 952.0
20260904042445 83 0 0.0 0.0 0.00 0.00 0.00 72 952.0
20260904041421 83 0 0.0 0.0 0.00 0.00 0.00 71 952.0
20260904040356 82 0 0.0 0.0 0.00 0.00 0.00 71 952.0
20260904035331 83 0 0.0 0.0 0.00 0.00 0.00 72 952.0
20260904034307 82 0 0.0 0.0 0.00 0.00 0.00 73 953.0
20260904033242 82 0 0.0 0.0 0.00 0.00 0.00 71 953.0
20260904032217 82 0 0.0 0.0 0.00 0.00 0.00 77 953.0
20260904031152 81 0 0.0 0.0 0.00 0.00 0.00 76 953.0
20260904030128 81 0 0.0 0.0 0.00 0.00 0.00 78 953.0
20260904025103 80 0 0.0 0.0 0.00 0.00 0.00 77 953.0
20260904024038 80 0 0.0 0.0 0.00 0.00 0.00 76 953.0
20260904023014 79 0 0.0 0.0 0.00 0.00 0.00 78 953.0
20260904021949 79 0 0.0 0.0 0.00 0.00 0.00 77 953.0
20260904020925 79 0 0.0 0.0 0.00 0.00 0.00 78 953.0
20260904015901 78 0 0.0 0.0 0.00 0.00 0.00 78 953.0
20260904014836 77 0 0.0 0.0 0.00 0.00 0.00 78 953.0
20260904013811 77 0 0.0 0.0 0.00 0.00 0.00 79 952.0
20260904012745 77 0 0.0 0.0 0.00 0.00 0.00 82 952.0
20260904011720 77 0 0.0 0.0 0.00 0.00 0.00 79 952.0
20260904010655 77 0 0.0 0.0 0.00 0.00 0.00 84 952.0
20260904005630 77 0 0.0 0.0 0.00 0.00 0.00 82 952.0
20260904004605 77 0 0.0 0.0 0.00 0.00 0.00 82 952.0
20260904003541 77 0 0.0 0.0 0.00 0.00 0.00 85 952.0
20260904002515 77 0 0.0 0.0 0.00 0.00 0.00 83 952.0
20260904001450 76 0 0.0 0.0 0.00 0.00 0.00 80 952.0
20260904000425 76 0 0.0 0.0 0.00 0.00 0.00 81 951.0
20260903235356 76 0 0.0 0.0 0.00 0.00 0.00 82 951.0
20260903234330 76 0 0.0 0.0 0.00 0.00 0.00 81 951.0
20260903233305 75 0 0.0 0.0 0.00 0.00 0.00 82 951.0
20260903232239 76 0 0.0 0.0 0.00 0.00 0.00 83 951.0
20260903231215 76 0 0.0 0.0 0.00 0.00 0.00 82 951.0
20260903230150 76 0 0.0 0.0 0.00 0.00 0.00 82 951.0
20260903225125 76 0 0.0 0.0 0.00 0.00 0.00 82 951.0
20260903224101 75 0 0.0 0.0 0.00 0.00 0.00 84 951.0
20260903223037 75 0 0.0 0.0 0.00 0.00 0.00 84 951.0
20260903222013 76 0 0.0 0.0 0.00 0.00 0.00 84 950.0
20260903220948 76 0 0.0 0.0 0.00 0.00 0.00 84 950.0
20260903215924 76 0 0.0 0.0 0.00 0.00 0.00 84 950.0
20260903214859 76 0 0.0 0.0 0.00 0.00 0.00 84 950.0
20260903213834 76 0 0.0 0.0 0.00 0.00 0.00 84 950.0
20260903212810 76 0 0.0 0.0 0.00 0.00 0.00 83 950.0
20260903211745 76 0 0.0 0.0 0.00 0.00 0.00 83 950.0
20260903210722 76 0 0.0 0.0 0.00 0.00 0.00 83 950.0
20260903205657 76 0 0.0 0.0 0.00 0.00 0.00 83 950.0
20260903204632 76 0 0.0 0.0 0.00 0.00 0.00 81 950.0
20260903203608 76 0 0.0 0.0 0.00 0.00 0.00 82 950.0
20260903202543 76 0 0.0 0.0 0.00 0.00 0.00 82 950.0
20260903201518 77 0 0.0 0.0 0.00 0.00 0.00 81 950.0
20260903200454 77 0 0.0 0.0 0.00 0.00 0.00 79 950.0
20260903195430 77 0 0.0 0.0 0.00 0.00 0.00 79 950.0
20260903194405 77 0 0.0 0.0 0.00 0.00 0.00 78 950.0
20260903193341 77 0 0.0 0.0 0.00 0.00 0.00 80 950.0
20260903192316 77 0 0.0 0.0 0.00 0.00 0.00 79 950.0
20260903191252 77 0 0.0 0.0 0.00 0.00 0.00 81 950.0
20260903190227 77 0 0.0 0.0 0.00 0.00 0.00 81 950.0
20260903185202 77 0 0.0 0.0 0.00 0.00 0.00 79 950.0
20260903184137 77 0 0.0 0.0 0.00 0.00 0.00 79 950.0
20260903183112 77 0 0.0 0.0 0.00 0.00 0.00 81 950.0
20260903182048 77 0 0.0 0.0 0.00 0.00 0.00 81 950.0
20260903181023 77 0 0.0 0.0 0.00 0.00 0.00 81 950.0
20260903175959 78 0 0.0 0.0 0.00 0.00 0.00 80 950.0
20260903174934 78 0 0.0 0.0 0.00 0.00 0.00 81 950.0
20260903173910 78 0 0.0 0.0 0.00 0.00 0.00 80 951.0
20260903172845 78 0 0.0 0.0 0.00 0.00 0.00 77 951.0
20260903171820 78 0 0.0 0.0 0.00 0.00 0.00 77 951.0
20260903170755 78 0 0.0 0.0 0.00 0.00 0.00 76 951.0
20260903165731 79 0 0.0 0.0 0.00 0.00 0.00 75 951.0
20260903164707 78 0 0.0 0.0 0.00 0.00 0.00 75 951.0
20260903163642 78 0 0.0 0.0 0.00 0.00 0.00 75 951.0
20260903162618 78 0 0.0 0.0 0.00 0.00 0.00 81 951.0
20260903161554 78 0 0.0 0.0 0.00 0.00 0.00 81 951.0
20260903160529 78 0 0.0 0.0 0.00 0.00 0.00 82 951.0
20260903155505 78 0 0.0 0.0 0.00 0.00 0.00 83 951.0